CW0009 Weather Reports


Display with metric or nautical units.
time (UTC)temp
F
wind
direction
speed
MPH
gust
MPH
rain 1hr
in
rain 24hr
in
rain mn
in
humidity
%
barometer
mb
20170626085033 70 20 7.0 9.0 0.00 0.00 0.00 74 1014.0
20170626084011 69 275 5.0 12.0 0.00 0.00 0.00 75 1014.0
20170626082011 68 260 5.0 6.0 0.00 0.00 0.00 76 1014.0
20170626080033 67 25 2.0 7.0 0.00 0.00 0.00 77 1014.0
20170626075012 67 25 2.0 5.0 0.00 0.00 0.00 78 1014.0
20170626074011 67 25 2.0 5.0 0.00 0.00 0.00 78 1014.0
20170626073013 67 25 2.0 3.0 0.00 0.00 0.00 78 1014.0
20170626072032 67 25 2.0 3.0 0.00 0.00 0.00 79 1014.0
20170626071011 67 25 3.0 5.0 0.00 0.00 0.00 79 1014.0
20170626070033 66 25 5.0 6.0 0.00 0.00 0.00 80 1014.0
20170626065011 66 25 3.0 6.0 0.00 0.00 0.00 81 1014.0
20170626064011 76 20 3.0 5.0 0.00 0.00 0.00 63 1014.0
20170626063014 65 15 2.0 5.0 0.00 0.00 0.00 82 1014.0
20170626062011 65 15 2.0 5.0 0.00 0.00 0.00 83 1014.0
20170626061011 65 335 1.0 3.0 0.00 0.00 0.00 83 1014.0
20170626060010 64 10 0.0 0.0 0.00 0.00 0.00 84 1014.0
20170626055010 64 5 1.0 0.0 0.00 0.00 0.00 84 1013.0
20170626053012 64 345 2.0 3.0 0.00 0.00 0.00 85 1013.0
20170626052012 64 350 3.0 3.0 0.00 0.00 0.00 85 1013.0
20170626051011 64 300 3.0 5.0 0.00 0.00 0.00 85 1013.0
20170626050010 64 245 1.0 5.0 0.00 0.00 0.00 85 1013.0
20170626045012 64 280 3.0 0.0 0.00 0.00 0.00 85 1013.0
20170626044011 64 280 3.0 5.0 0.00 0.00 0.00 85 1013.0
20170626043013 64 255 2.0 6.0 0.00 0.00 0.00 85 1013.0
20170626042011 64 225 1.0 6.0 0.00 0.00 0.00 85 1013.0
20170626041011 64 235 1.0 1.0 0.00 0.00 0.00 85 1012.0
20170626040032 64 210 2.0 3.0 0.00 0.00 0.00 85 1012.0
20170626035032 64 230 2.0 3.0 0.00 0.00 0.00 85 1012.0
20170626034012 64 255 2.0 3.0 0.00 0.00 0.00 85 1012.0
20170626033014 64 230 2.0 5.0 0.00 0.00 0.00 85 1012.0
20170626032013 64 215 2.0 5.0 0.00 0.00 0.00 85 1012.0
20170626031032 64 230 4.0 6.0 0.00 0.00 0.00 85 1012.0
20170626030012 64 210 5.0 7.0 0.00 0.00 0.00 84 1012.0
20170626025011 64 215 3.0 6.0 0.00 0.00 0.00 84 1013.0
20170626024032 64 215 5.0 6.0 0.00 0.00 0.00 84 1012.0
20170626022013 64 220 7.0 8.0 0.00 0.00 0.00 84 1013.0
20170626021011 64 225 7.0 8.0 0.00 0.00 0.00 84 1013.0
20170626020010 64 220 7.0 8.0 0.00 0.00 0.00 84 1013.0
20170626015011 64 230 7.0 8.0 0.00 0.00 0.00 83 1013.0
20170626014011 64 220 6.0 7.0 0.00 0.00 0.00 83 1013.0
20170626013013 64 225 7.0 8.0 0.00 0.00 0.00 83 1013.0
20170626012012 64 200 6.0 10.0 0.00 0.00 0.00 83 1013.0
20170626011011 64 215 5.0 6.0 0.00 0.00 0.00 83 1013.0
20170626010032 64 265 6.0 9.0 0.00 0.00 0.00 83 1013.0
20170626005011 64 255 6.0 6.0 0.00 0.00 0.00 83 1013.0
20170626004011 64 230 6.0 8.0 0.00 0.00 0.00 83 1013.0
20170626003013 64 220 6.0 7.0 0.00 0.00 0.00 83 1013.0
20170626002011 64 205 6.0 9.0 0.00 0.00 0.00 83 1012.0
20170626001012 64 205 7.0 6.0 0.00 0.00 0.00 82 1012.0
20170626000011 65 215 8.0 9.0 0.00 0.00 0.00 82 1012.0
20170625235011 65 230 7.0 9.0 0.00 0.00 0.00 82 1012.0
20170625234012 65 235 5.0 9.0 0.00 0.00 0.00 82 1012.0
20170625233013 65 220 5.0 6.0 0.00 0.00 0.00 82 1012.0
20170625232032 65 230 8.0 8.0 0.00 0.00 0.00 82 1013.0
20170625231011 65 215 9.0 9.0 0.00 0.00 0.00 82 1013.0
20170625230011 65 250 7.0 12.0 0.00 0.00 0.00 81 1013.0
20170625225011 65 220 6.0 7.0 0.00 0.00 0.00 81 1012.0
20170625224032 65 220 7.0 7.0 0.00 0.00 0.00 81 1012.0
20170625223015 65 235 9.0 12.0 0.00 0.00 0.00 80 1012.0
20170625222011 65 210 9.0 10.0 0.00 0.00 0.00 80 1013.0
20170625221032 65 205 9.0 13.0 0.00 0.00 0.00 80 1013.0
20170625214011 66 220 9.0 13.0 0.00 0.00 0.00 79 1013.0
20170625213012 66 215 9.0 13.0 0.00 0.00 0.00 79 1013.0
20170625212033 66 235 9.0 13.0 0.00 0.00 0.00 78 1013.0
20170625211011 66 230 12.0 9.0 0.00 0.00 0.00 78 1013.0
20170625210011 67 220 13.0 13.0 0.00 0.00 0.00 78 1013.0
20170625204011 67 230 10.0 13.0 0.00 0.00 0.00 78 1013.0
20170625203035 67 210 10.0 13.0 0.00 0.00 0.00 77 1012.0
20170625202011 67 235 9.0 10.0 0.00 0.00 0.00 77 1012.0
20170625201012 67 205 9.0 9.0 0.00 0.00 0.00 77 1012.0
20170625200010 67 245 12.0 13.0 0.00 0.00 0.00 76 1012.0
20170625195032 68 235 10.0 13.0 0.00 0.00 0.00 75 1012.0
20170625194012 68 230 9.0 13.0 0.00 0.00 0.00 75 1012.0
20170625193035 68 215 12.0 12.0 0.00 0.00 0.00 75 1012.0
20170625192011 69 210 13.0 14.0 0.00 0.00 0.00 74 1012.0
20170625191012 69 230 11.0 15.0 0.00 0.00 0.00 74 1012.0
20170625190032 69 235 12.0 13.0 0.00 0.00 0.00 74 1012.0
20170625185012 69 215 13.0 15.0 0.00 0.00 0.00 73 1012.0
20170625184032 70 230 11.0 14.0 0.00 0.00 0.00 73 1012.0
20170625183014 70 210 12.0 12.0 0.00 0.00 0.00 72 1012.0
20170625182011 70 215 12.0 14.0 0.00 0.00 0.00 72 1012.0
20170625181032 70 220 10.0 14.0 0.00 0.00 0.00 72 1012.0
20170625180012 70 205 12.0 12.0 0.00 0.00 0.00 72 1012.0
20170625175011 71 210 12.0 13.0 0.00 0.00 0.00 71 1013.0
20170625174032 71 220 11.0 13.0 0.00 0.00 0.00 71 1012.0
20170625173014 71 215 12.0 14.0 0.00 0.00 0.00 71 1013.0
20170625172012 71 255 14.0 14.0 0.00 0.00 0.00 70 1013.0
20170625171011 71 235 12.0 14.0 0.00 0.00 0.00 70 1013.0
20170625170010 72 255 12.0 15.0 0.00 0.00 0.00 69 1013.0
20170625165012 72 290 12.0 16.0 0.00 0.00 0.00 68 1012.0
20170625164011 72 260 11.0 14.0 0.00 0.00 0.00 68 1012.0
20170625163012 73 275 12.0 13.0 0.00 0.00 0.00 68 1012.0
20170625162012 73 280 13.0 13.0 0.00 0.00 0.00 68 1013.0
20170625161033 73 220 14.0 15.0 0.00 0.00 0.00 68 1013.0
20170625160011 73 250 13.0 16.0 0.00 0.00 0.00 69 1013.0
20170625155011 73 275 10.0 14.0 0.00 0.00 0.00 68 1013.0
20170625154012 73 245 12.0 14.0 0.00 0.00 0.00 69 1013.0
20170625153037 73 245 12.0 16.0 0.00 0.00 0.00 68 1013.0
20170625152011 73 255 13.0 14.0 0.00 0.00 0.00 68 1013.0
20170625151033 73 245 13.0 16.0 0.00 0.00 0.00 68 1013.0
20170625150011 73 220 14.0 15.0 0.00 0.00 0.00 67 1012.0
20170625145031 73 230 14.0 16.0 0.00 0.00 0.00 67 1012.0
20170625143033 73 240 13.0 14.0 0.00 0.00 0.00 69 1012.0
20170625142011 73 210 13.0 15.0 0.00 0.00 0.00 69 1013.0
20170625141011 73 285 12.0 15.0 0.00 0.00 0.00 69 1012.0
20170625140011 73 235 13.0 14.0 0.00 0.00 0.00 69 1013.0
20170625135011 73 235 13.0 17.0 0.00 0.00 0.00 69 1013.0
20170625134011 73 230 12.0 17.0 0.00 0.00 0.00 70 1012.0
20170625133014 73 220 14.0 14.0 0.00 0.00 0.00 72 1013.0
20170625125012 71 235 9.0 13.0 0.00 0.00 0.00 74 1013.0
20170625123013 70 220 7.0 10.0 0.00 0.00 0.00 75 1013.0
20170625122012 70 210 9.0 10.0 0.00 0.00 0.00 75 1013.0
20170625121011 70 235 10.0 12.0 0.00 0.00 0.00 75 1013.0
20170625120012 70 225 9.0 13.0 0.00 0.00 0.00 76 1013.0
20170625115011 69 215 8.0 13.0 0.00 0.00 0.00 76 1013.0
20170625114033 69 245 10.0 13.0 0.00 0.00 0.00 76 1013.0
20170625113013 69 245 9.0 12.0 0.00 0.00 0.00 76 1013.0
20170625112010 69 230 8.0 12.0 0.00 0.00 0.00 76 1013.0
20170625111012 69 225 9.0 10.0 0.00 0.00 0.00 77 1013.0
20170625104012 69 225 10.0 12.0 0.00 0.00 0.00 77 1013.0
20170625103018 69 220 12.0 14.0 0.00 0.00 0.00 77 1013.0
20170625100011 70 215 12.0 15.0 0.00 0.00 0.00 78 1013.0
20170625095012 70 225 12.0 13.0 0.00 0.00 0.00 79 1013.0
20170625094011 70 230 12.0 14.0 0.00 0.00 0.00 79 1012.0
20170625093014 69 200 12.0 15.0 0.00 0.00 0.00 80 1012.0
20170625091011 69 220 9.0 10.0 0.00 0.00 0.00 80 1012.0
20170625090011 69 240 10.0 12.0 0.00 0.00 0.00 80 1012.0